Regional Weather Roundup
Issued by NWS

Home | Current Version | Previous Version | Text Only | Print | Product List | Glossary Off
Versions: 1 2 3 4 5 6 7 8 9 10 11 12 13 14 15 16 17 18 19 20 21 22 23 24 25 26 27 28 29 30 31 32 33 34 35 36 37 38 39 40 41 42 43 44 45 46 47 48 49 50

000
ASUS43 KLOT 271502
RWRIL

ILLINOIS REGIONAL WEATHER ROUNDUP
NATIONAL WEATHER SERVICE CHICAGO/ROMEOVILLE IL
1000 AM CDT WED MAY 27 2015

NOTE: "FAIR" INDICATES FEW OR NO CLOUDS BELOW 12,000 FEET WITH NO
SIGNIFICANT WEATHER AND/OR OBSTRUCTIONS TO VISIBILITY.

* THESE STATIONS ARE NOT UNDER NWS QUALITY CONTROL. THEY ALSO MAY NOT
  REPORT WEATHER SUCH AS PRECIPITATION OR FOG.

ILZ001-002-007-009-015-016-024-271600-
NORTHWEST ILLINOIS

CITY           SKY/WX    TMP DP  RH WIND       PRES   REMARKS
MOLINE         PTSUNNY   70  58  65 NW16G24   29.99R
STERLING*      CLOUDY    68  57  68 W17G24    29.98R
$$

ILZ003-004-008-010-011-017-018-271600-
NORTH CENTRAL ILLINOIS

CITY           SKY/WX    TMP DP  RH WIND       PRES   REMARKS
ROCKFORD       PTSUNNY   66  58  75 W9        29.97R
FREEPORT*      CLOUDY    63  58  84 W17       29.98S
$$

ILZ005-006-012>014-019>023-271600-
NORTHEAST ILLINOIS

CITY           SKY/WX    TMP DP  RH WIND       PRES   REMARKS
CHICAGO-OHARE  PTSUNNY   69  58  67 W20G26    29.94S
CHICAGO-MIDWAY PTSUNNY   73  60  63 SW17G24   29.95R
AURORA         PTSUNNY   70  60  70 SW13      29.97R
WAUKEGAN       PTSUNNY   68  59  73 SW10G23   29.92S
DUPAGE AIRPORT PTSUNNY   69  59  70 W17       29.96R
WHEELING       CLOUDY    68  57  68 W16G24    29.95S
NORTHERLY ISL    N/A     70  56  61 SW12        N/A
$$

LMZ740>746-271600-
SOUTHERN LAKE MICHIGAN

STATION/POSITION SKY/WX   TEMP    WIND        PRES    VSBY  WAVE
                          AIR SEA DIR/SP/G                  HT/PER
                          (F)     (DEG/KT/KT) (MB)    (MI)  (FT/S)
SOUTHERN BUOY              45 38  200/ 10/ 10 1013.9R         2/ 3
HARRISON CRIB              67     240/ 14/ 19   N/A
BURNHAM HARBOR             69     260/ 12/ 16   N/A
CALUMET HARBOR             70     230/ 11/ 20   N/A
BURNS HARBOR               69     240/ 17/ 21 1014.9F
MICHIGAN CITY              68     200/ 14/ 17   N/A
MICHIGAN CITY 6N           59 52  240/  8/ 10   N/A           1/ 3
ST. JOSEPH                 60 55  240/ 10/ 12   N/A           2/ 4
$$

ILZ025>027-034>036-040-047-049-050-058-095>099-271600-
WEST-CENTRAL ILLINOIS

CITY           SKY/WX    TMP DP  RH WIND       PRES   REMARKS
QUINCY         PTSUNNY   69  58  67 W12       30.04S
MACOMB*        PTSUNNY   69  60  74 W12       30.04S
$$

ILZ028>032-037-038-041>044-048-051>054-059>061-271600-
CENTRAL ILLINOIS

CITY           SKY/WX    TMP DP  RH WIND       PRES   REMARKS
DECATUR        CLOUDY    71  64  78 SW15G25   30.03S
PEORIA         PTSUNNY   72  61  68 SW9       30.01R
SPRINGFIELD    CLOUDY    72  64  76 SW9       30.03F
TAYLORVILLE    NOT AVBL
$$

ILZ033-039-045-046-055>057-062-063-271600-
EAST-CENTRAL ILLINOIS

CITY           SKY/WX    TMP DP  RH WIND       PRES   REMARKS
CHAMPAIGN      CLOUDY    72  64  76 SW18G29   30.03S
MATTOON        CLOUDY    72  63  73 SW10G23   30.06R
$$

ILZ079-100>102-271600-
SOUTHWEST ILLINOIS

CITY           SKY/WX    TMP DP  RH WIND       PRES   REMARKS
ALTON          CLOUDY    70  66  88 S9        30.05
BELLEVILLE     CLOUDY    69  63  82 S2        30.03F
CAHOKIA*         N/A     71  61  70 MISG      30.04F
SPARTA*        CLOUDY    65  62  92 SE8       30.04F
$$

ILZ064>066-069>071-074>076-080>082-084>086-088>090-092>094-271600-
SOUTH-CENTRAL ILLINOIS

CITY           SKY/WX    TMP DP  RH WIND       PRES   REMARKS
CARBONDALE     CLOUDY    67  62  84 NW5       30.08F THUNDER
MARION         PTSUNNY   68  64  88 MISG      30.11F
MT. VERNON     CLOUDY    66  61  82 SE5       30.08F
SALEM*         LGT RAIN  66  62  84 SW8       30.08F
$$

ILZ067-068-072-073-078-083-087-091-271600-
SOUTHEAST ILLINOIS

CITY           SKY/WX    TMP DP  RH WIND       PRES   REMARKS
LAWRENCEVILLE  PTSUNNY   76  64  66 W14G22    30.09R
HARRISBURG*    PTSUNNY   69  67  93 W12       30.14F
ROBINSON*      PTSUNNY   76  63  65 W12       30.09R
$$

ABBREVIATIONS USED IN REMARKS
   TC - TEMPERATURE IN CELSIUS
  WCI - WIND CHILL INDEX
   HX - HEAT INDEX
  VSB - VISIBILITY
$$




USA.gov is the U.S. government's official web portal to all federal, state and local government web resources and services.